VLG44DM EDDM-LEBL

Flight info

Callsign VLG44DM
Flight time 1h 44m
Altitude 37000
Route TURBU7S TURBU Y107 TOBSO DCT BAKOR DCT GEKBA DCT VAMTU DCT KOLON DCT GANGU DCT PADKO DCT DIVKO DCT NILDU N975 BISBA
Aircraft A320/M-SDE3FGHIRWY/LB1

Departure

Time 2026-05-05 10:09
Airport Munich Airport (EDDM)

Arrival

Time 2026-05-05 11:53
Airport Josep Tarradellas Barcelona-El Prat Airport (LEBL)
Time Latitude Longitude Altitude Speed Heading
2026-05-05 09:50 48.35368 11.77671 1477 ft 0 kts 263°
2026-05-05 09:50 48.35368 11.77672 1476 ft 0 kts 263°
2026-05-05 09:59 48.35369 11.77675 1485 ft 2 kts 263°
2026-05-05 09:59 48.35371 11.77701 1474 ft 2 kts 263°
2026-05-05 09:59 48.35372 11.77727 1472 ft 3 kts 262°
2026-05-05 10:00 48.35378 11.77752 1471 ft 3 kts 225°
2026-05-05 10:00 48.35393 11.77767 1485 ft 3 kts 189°
2026-05-05 10:00 48.35410 11.77767 1475 ft 2 kts 177°
2026-05-05 10:00 48.35419 11.77766 1480 ft 0 kts 168°
2026-05-05 10:02 48.35403 11.77771 1473 ft 6 kts 168°
2026-05-05 10:02 48.35358 11.77781 1483 ft 7 kts 174°
2026-05-05 10:03 48.35295 11.77791 1485 ft 11 kts 174°
2026-05-05 10:03 48.35208 11.77806 1481 ft 14 kts 172°
2026-05-05 10:03 48.35098 11.77826 1485 ft 18 kts 173°
2026-05-05 10:03 48.34964 11.77849 1479 ft 21 kts 173°
2026-05-05 10:04 48.34814 11.77874 1485 ft 23 kts 174°
2026-05-05 10:04 48.34654 11.77902 1484 ft 17 kts 172°
2026-05-05 10:04 48.34564 11.77967 1479 ft 15 kts 111°
2026-05-05 10:04 48.34573 11.78139 1485 ft 18 kts 84°
2026-05-05 10:05 48.34588 11.78343 1478 ft 21 kts 83°
2026-05-05 10:05 48.34607 11.78579 1485 ft 24 kts 83°
2026-05-05 10:05 48.34628 11.78845 1477 ft 27 kts 82°
2026-05-05 10:05 48.34649 11.79137 1476 ft 29 kts 84°
2026-05-05 10:06 48.34673 11.79454 1485 ft 32 kts 83°
2026-05-05 10:06 48.34699 11.79791 1482 ft 33 kts 83°
2026-05-05 10:06 48.34729 11.80115 1477 ft 25 kts 72°
2026-05-05 10:06 48.34761 11.80359 1485 ft 24 kts 84°
2026-05-05 10:07 48.34762 11.80522 1483 ft 9 kts 116°
2026-05-05 10:07 48.34703 11.80564 1485 ft 9 kts 156°
2026-05-05 10:07 48.34641 11.80566 1485 ft 9 kts 193°
2026-05-05 10:07 48.34572 11.80503 1485 ft 17 kts 219°
2026-05-05 10:08 48.34472 11.80312 1480 ft 30 kts 255°
2026-05-05 10:08 48.34429 11.79792 1482 ft 83 kts 262°
2026-05-05 10:08 48.34336 11.78593 1486 ft 142 kts 264°
2026-05-05 10:08 48.34208 11.76896 1628 ft 175 kts 263°
2026-05-05 10:09 48.33738 11.75239 2219 ft 182 kts 217°
2026-05-05 10:09 48.32565 11.74423 2824 ft 192 kts 190°
2026-05-05 10:09 48.31227 11.74502 3448 ft 197 kts 164°
2026-05-05 10:09 48.29869 11.75196 3862 ft 217 kts 161°
2026-05-05 10:10 48.28374 11.76002 4338 ft 240 kts 161°
2026-05-05 10:10 48.26733 11.76900 4815 ft 262 kts 160°
2026-05-05 10:10 48.24919 11.77893 5325 ft 285 kts 161°
2026-05-05 10:10 48.22986 11.78947 5855 ft 307 kts 160°
2026-05-05 10:11 48.20909 11.80079 6283 ft 329 kts 160°
2026-05-05 10:11 48.18691 11.81285 6642 ft 350 kts 160°
2026-05-05 10:11 48.16327 11.82551 6932 ft 371 kts 161°
2026-05-05 10:11 48.13833 11.83824 7319 ft 384 kts 162°
2026-05-05 10:12 48.11284 11.85083 8022 ft 388 kts 162°
2026-05-05 10:12 48.08714 11.86334 8750 ft 391 kts 162°
2026-05-05 10:12 48.06116 11.87598 9472 ft 395 kts 162°
2026-05-05 10:12 48.03490 11.88879 10117 ft 398 kts 162°
2026-05-05 10:13 48.00849 11.90175 10777 ft 401 kts 162°
2026-05-05 10:13 47.98189 11.91491 11448 ft 404 kts 162°
2026-05-05 10:13 47.95510 11.92824 12095 ft 407 kts 162°
2026-05-05 10:13 47.92829 11.94113 13054 ft 398 kts 166°
2026-05-05 10:14 47.90181 11.94810 13930 ft 375 kts 175°
2026-05-05 10:14 47.88446 11.94889 13848 ft 364 kts 181°
2026-05-05 10:14 47.85971 11.94829 13831 ft 348 kts 182°
2026-05-05 10:14 47.83610 11.94764 13912 ft 328 kts 182°
2026-05-05 10:15 47.81404 11.94707 14140 ft 306 kts 182°
2026-05-05 10:15 47.79361 11.94661 14366 ft 280 kts 182°
2026-05-05 10:15 47.77475 11.94621 14600 ft 266 kts 182°
2026-05-05 10:15 47.75629 11.94582 14774 ft 265 kts 182°
2026-05-05 10:16 47.73791 11.94542 14817 ft 264 kts 182°
2026-05-05 10:16 47.71957 11.94502 14827 ft 264 kts 182°
2026-05-05 10:16 47.70124 11.94465 14827 ft 263 kts 182°
2026-05-05 10:16 47.68296 11.94433 14821 ft 262 kts 182°
2026-05-05 10:17 47.66474 11.94402 14825 ft 263 kts 182°
2026-05-05 10:17 47.64612 11.94370 14826 ft 264 kts 182°
2026-05-05 10:17 47.62781 11.94343 14824 ft 263 kts 182°
2026-05-05 10:17 47.60921 11.94314 14874 ft 277 kts 182°
2026-05-05 10:18 47.58917 11.94277 15104 ft 299 kts 182°
2026-05-05 10:18 47.56765 11.94237 15285 ft 320 kts 182°
2026-05-05 10:18 47.54472 11.94195 15425 ft 341 kts 182°
2026-05-05 10:18 47.52028 11.94151 15553 ft 360 kts 182°
2026-05-05 10:19 47.49459 11.94108 15681 ft 378 kts 181°
2026-05-05 10:19 47.46771 11.94061 15809 ft 395 kts 181°
2026-05-05 10:19 47.43969 11.94010 15940 ft 409 kts 182°
2026-05-05 10:19 47.41061 11.93609 16084 ft 420 kts 188°
2026-05-05 10:20 47.38146 11.93027 16472 ft 423 kts 188°
2026-05-05 10:20 47.35221 11.92440 16946 ft 426 kts 188°
2026-05-05 10:20 47.32279 11.91850 17381 ft 429 kts 188°
2026-05-05 10:20 47.29313 11.91255 17823 ft 431 kts 188°
2026-05-05 10:21 47.26330 11.90658 18227 ft 433 kts 188°
2026-05-05 10:21 47.23332 11.90063 18565 ft 435 kts 188°
2026-05-05 10:21 47.20325 11.89462 18841 ft 438 kts 188°
2026-05-05 10:21 47.17300 11.88855 19155 ft 439 kts 188°
2026-05-05 10:22 47.14266 11.88248 19466 ft 440 kts 188°
2026-05-05 10:22 47.11225 11.87648 19747 ft 442 kts 188°
2026-05-05 10:22 47.08176 11.87050 20026 ft 443 kts 188°
2026-05-05 10:22 47.05116 11.86452 20321 ft 444 kts 187°
2026-05-05 10:23 47.02054 11.85848 20566 ft 445 kts 188°
2026-05-05 10:23 46.98983 11.85115 20800 ft 448 kts 191°
2026-05-05 10:23 46.95928 11.84212 21019 ft 450 kts 192°
2026-05-05 10:23 46.92866 11.83193 21239 ft 452 kts 193°
2026-05-05 10:24 46.89799 11.82124 21438 ft 455 kts 193°
2026-05-05 10:24 46.86715 11.81053 21616 ft 457 kts 193°
2026-05-05 10:24 46.83618 11.80009 21867 ft 458 kts 193°
2026-05-05 10:24 46.80460 11.78984 22112 ft 459 kts 192°
2026-05-05 10:25 46.77337 11.78001 22266 ft 460 kts 192°
2026-05-05 10:25 46.74197 11.77027 22450 ft 461 kts 192°
2026-05-05 10:25 46.71057 11.76052 22597 ft 462 kts 192°
2026-05-05 10:25 46.67909 11.75070 22729 ft 463 kts 192°
2026-05-05 10:26 46.64804 11.73820 22861 ft 463 kts 200°
2026-05-05 10:26 46.61896 11.71816 23060 ft 461 kts 211°
2026-05-05 10:26 46.59314 11.69126 23688 ft 453 kts 220°
2026-05-05 10:26 46.57105 11.65930 24376 ft 444 kts 228°
2026-05-05 10:27 46.55176 11.62486 25091 ft 435 kts 230°
2026-05-05 10:27 46.53293 11.59103 25821 ft 426 kts 230°
2026-05-05 10:27 46.51448 11.55782 26568 ft 418 kts 230°
2026-05-05 10:27 46.49647 11.52534 27337 ft 410 kts 230°
2026-05-05 10:28 46.47878 11.49343 28129 ft 401 kts 230°
2026-05-05 10:28 46.46147 11.46226 28938 ft 392 kts 229°
2026-05-05 10:28 46.44450 11.43173 29777 ft 384 kts 229°
2026-05-05 10:28 46.42797 11.40196 30548 ft 374 kts 229°
2026-05-05 10:29 46.41168 11.37272 31301 ft 364 kts 229°
2026-05-05 10:29 46.39613 11.34494 32054 ft 354 kts 229°
2026-05-05 10:29 46.38065 11.31733 32847 ft 344 kts 229°
2026-05-05 10:29 46.36582 11.29087 33618 ft 333 kts 229°
2026-05-05 10:30 46.35115 11.26478 34000 ft 335 kts 229°
2026-05-05 10:30 46.33641 11.23859 34249 ft 337 kts 230°
2026-05-05 10:30 46.32159 11.21223 34465 ft 339 kts 230°
2026-05-05 10:30 46.30672 11.18577 34703 ft 340 kts 230°
2026-05-05 10:31 46.29175 11.15910 34932 ft 342 kts 230°
2026-05-05 10:31 46.27671 11.13229 35176 ft 345 kts 230°
2026-05-05 10:31 46.26147 11.10520 35324 ft 350 kts 230°
2026-05-05 10:31 46.24597 11.07766 35450 ft 355 kts 230°
2026-05-05 10:32 46.23029 11.04991 35577 ft 360 kts 230°
2026-05-05 10:32 46.21433 11.02172 35698 ft 364 kts 230°
2026-05-05 10:32 46.19822 10.99326 35827 ft 369 kts 230°
2026-05-05 10:32 46.18187 10.96439 35934 ft 373 kts 231°
2026-05-05 10:33 46.16536 10.93527 36071 ft 377 kts 230°
2026-05-05 10:33 46.14864 10.90581 36195 ft 382 kts 231°
2026-05-05 10:33 46.13170 10.87601 36320 ft 386 kts 231°
2026-05-05 10:33 46.11461 10.84599 36447 ft 390 kts 231°
2026-05-05 10:34 46.09734 10.81567 36563 ft 393 kts 231°
2026-05-05 10:34 46.07969 10.78474 36693 ft 395 kts 231°
2026-05-05 10:34 46.06222 10.75414 36824 ft 397 kts 231°
2026-05-05 10:34 46.04467 10.72337 36981 ft 398 kts 231°
2026-05-05 10:35 46.00930 10.66136 37025 ft 405 kts 231°
2026-05-05 10:35 45.97321 10.59834 37021 ft 411 kts 231°
2026-05-05 10:36 45.93640 10.53441 37015 ft 418 kts 231°
2026-05-05 10:36 45.89917 10.46985 37011 ft 422 kts 231°
2026-05-05 10:37 45.86165 10.40469 37003 ft 424 kts 231°
2026-05-05 10:37 45.82399 10.33962 36998 ft 424 kts 231°
2026-05-05 10:38 45.78604 10.27436 36994 ft 423 kts 231°
2026-05-05 10:38 45.74838 10.20949 36992 ft 423 kts 231°
2026-05-05 10:39 45.71067 10.14479 37000 ft 424 kts 231°
2026-05-05 10:39 45.67294 10.08021 37005 ft 423 kts 231°
2026-05-05 10:40 45.63526 10.01579 37015 ft 422 kts 231°
2026-05-05 10:40 45.59754 9.95163 37018 ft 421 kts 231°
2026-05-05 10:41 45.55958 9.88723 37017 ft 421 kts 231°
2026-05-05 10:41 45.52190 9.82327 37020 ft 421 kts 231°
2026-05-05 10:42 45.47173 9.73835 37112 ft 421 kts 231°
2026-05-05 10:43 45.43405 9.67459 37118 ft 421 kts 231°
2026-05-05 10:43 45.39628 9.61094 37115 ft 420 kts 230°
2026-05-05 10:44 45.35822 9.54710 37103 ft 421 kts 230°
2026-05-05 10:44 45.32035 9.48367 37017 ft 421 kts 230°
2026-05-05 10:45 45.28245 9.42031 37026 ft 421 kts 231°
2026-05-05 10:45 45.24454 9.35710 37017 ft 420 kts 230°
2026-05-05 10:46 45.20675 9.29423 37014 ft 419 kts 230°
2026-05-05 10:46 45.16890 9.23145 37013 ft 419 kts 230°
2026-05-05 10:47 45.13114 9.16876 37015 ft 418 kts 230°
2026-05-05 10:47 45.09334 9.10624 37019 ft 418 kts 230°
2026-05-05 10:48 45.05551 9.04391 37018 ft 417 kts 230°
2026-05-05 10:48 45.01773 8.98174 37021 ft 417 kts 230°
2026-05-05 10:49 44.97997 8.91961 37020 ft 416 kts 230°
2026-05-05 10:49 44.94222 8.85766 37023 ft 416 kts 230°
2026-05-05 10:50 44.90407 8.79542 37026 ft 416 kts 230°
2026-05-05 10:50 44.86626 8.73375 37030 ft 415 kts 230°
2026-05-05 10:51 44.82854 8.67221 37030 ft 415 kts 230°
2026-05-05 10:51 44.79070 8.61079 37030 ft 415 kts 230°
2026-05-05 10:52 44.75289 8.54958 37029 ft 414 kts 230°
2026-05-05 10:52 44.71514 8.48854 37027 ft 414 kts 230°
2026-05-05 10:53 44.67727 8.42746 37027 ft 414 kts 229°
2026-05-05 10:53 44.63952 8.36659 37023 ft 413 kts 229°
2026-05-05 10:54 44.60176 8.30585 37020 ft 412 kts 229°
2026-05-05 10:54 44.56400 8.24534 37022 ft 412 kts 229°
2026-05-05 10:55 44.52622 8.18491 37011 ft 412 kts 229°
2026-05-05 10:55 44.48823 8.12416 37012 ft 412 kts 229°
2026-05-05 10:56 44.45043 8.06397 37014 ft 411 kts 229°
2026-05-05 10:56 44.41261 8.00389 37016 ft 412 kts 229°
2026-05-05 10:57 44.37469 7.94378 37015 ft 412 kts 229°
2026-05-05 10:57 44.33675 7.88365 37013 ft 413 kts 229°
2026-05-05 10:58 44.29871 7.82355 37006 ft 413 kts 228°
2026-05-05 10:58 44.25926 7.76512 36997 ft 414 kts 222°
2026-05-05 10:59 44.21605 7.71186 36985 ft 415 kts 222°
2026-05-05 10:59 44.17273 7.65858 36978 ft 416 kts 222°
2026-05-05 11:00 44.13138 7.60252 36975 ft 416 kts 229°
2026-05-05 11:00 44.09346 7.54165 36982 ft 416 kts 229°
2026-05-05 11:01 44.05544 7.48094 36991 ft 417 kts 229°
2026-05-05 11:01 44.01729 7.42021 36999 ft 417 kts 229°
2026-05-05 11:02 43.97921 7.35961 36997 ft 416 kts 229°
2026-05-05 11:02 43.94110 7.29901 37002 ft 416 kts 229°
2026-05-05 11:03 43.90304 7.23858 36995 ft 415 kts 229°
2026-05-05 11:03 43.86478 7.17798 36994 ft 415 kts 229°
2026-05-05 11:04 43.82669 7.11779 37000 ft 415 kts 229°
2026-05-05 11:04 43.78860 7.05788 37002 ft 414 kts 229°
2026-05-05 11:05 43.75053 6.99812 37002 ft 414 kts 229°
2026-05-05 11:05 43.71680 6.93403 36997 ft 414 kts 243°
2026-05-05 11:06 43.69486 6.86040 37002 ft 415 kts 246°
2026-05-05 11:06 43.67316 6.78665 37000 ft 415 kts 246°
2026-05-05 11:07 43.65130 6.71301 37004 ft 414 kts 246°
2026-05-05 11:07 43.62940 6.63932 37000 ft 414 kts 246°
2026-05-05 11:08 43.60757 6.56582 36991 ft 414 kts 246°
2026-05-05 11:08 43.58565 6.49232 36984 ft 414 kts 246°
2026-05-05 11:09 43.56374 6.41890 36977 ft 414 kts 246°
2026-05-05 11:09 43.54176 6.34561 36979 ft 414 kts 246°
2026-05-05 11:10 43.51957 6.27192 36980 ft 413 kts 245°
2026-05-05 11:10 43.49749 6.19887 36979 ft 413 kts 245°
2026-05-05 11:11 43.47544 6.12581 36977 ft 413 kts 245°
2026-05-05 11:11 43.45336 6.05286 36976 ft 413 kts 245°
2026-05-05 11:12 43.43117 5.98001 36978 ft 413 kts 245°
2026-05-05 11:12 43.40896 5.90725 36978 ft 412 kts 245°
2026-05-05 11:13 43.38674 5.83459 36981 ft 412 kts 245°
2026-05-05 11:13 43.36449 5.76197 36985 ft 412 kts 245°
2026-05-05 11:14 43.34219 5.68943 36983 ft 412 kts 245°
2026-05-05 11:14 43.32362 5.62913 36989 ft 412 kts 245°
2026-05-05 11:15 43.30130 5.55671 36988 ft 411 kts 245°
2026-05-05 11:15 43.27877 5.48410 36991 ft 411 kts 245°
2026-05-05 11:16 43.25633 5.41204 36992 ft 411 kts 245°
2026-05-05 11:16 43.23386 5.33989 36992 ft 411 kts 245°
2026-05-05 11:17 43.21143 5.26796 36991 ft 410 kts 245°
2026-05-05 11:17 43.18894 5.19604 36995 ft 410 kts 245°
2026-05-05 11:18 43.16637 5.12429 36986 ft 410 kts 245°
2026-05-05 11:18 43.14377 5.05261 36985 ft 410 kts 245°
2026-05-05 11:19 43.12109 4.98101 36986 ft 410 kts 245°
2026-05-05 11:19 43.09838 4.90946 36984 ft 410 kts 245°
2026-05-05 11:20 43.07570 4.83800 36983 ft 409 kts 245°
2026-05-05 11:20 43.04803 4.77059 36982 ft 407 kts 230°
2026-05-05 11:21 43.00686 4.71736 36978 ft 408 kts 223°
2026-05-05 11:21 42.96444 4.66606 36971 ft 407 kts 223°
2026-05-05 11:22 42.92180 4.61435 36975 ft 407 kts 223°
2026-05-05 11:22 42.87931 4.56318 36972 ft 408 kts 223°
2026-05-05 11:23 42.83673 4.51204 36977 ft 408 kts 223°
2026-05-05 11:23 42.79415 4.46089 36979 ft 408 kts 223°
2026-05-05 11:24 42.75157 4.40990 36980 ft 408 kts 223°
2026-05-05 11:24 42.70894 4.35897 36982 ft 408 kts 223°
2026-05-05 11:25 42.66629 4.30812 36824 ft 408 kts 223°
2026-05-05 11:25 42.64514 4.28292 36592 ft 400 kts 223°
2026-05-05 11:25 42.62428 4.25811 36501 ft 397 kts 223°
2026-05-05 11:26 42.58298 4.20901 36314 ft 393 kts 223°
2026-05-05 11:26 42.54194 4.16032 36143 ft 391 kts 223°
2026-05-05 11:27 42.50106 4.11198 35967 ft 389 kts 223°
2026-05-05 11:27 42.46040 4.06397 35602 ft 389 kts 223°
2026-05-05 11:27 42.44016 4.04005 35106 ft 383 kts 223°
2026-05-05 11:28 42.42023 4.01653 34626 ft 377 kts 223°
2026-05-05 11:28 42.40056 3.99334 34150 ft 372 kts 223°
2026-05-05 11:28 42.38116 3.97049 33645 ft 367 kts 223°
2026-05-05 11:28 42.36203 3.94797 33091 ft 362 kts 223°
2026-05-05 11:29 42.34313 3.92577 32559 ft 358 kts 223°
2026-05-05 11:29 42.32440 3.90377 31941 ft 356 kts 223°
2026-05-05 11:29 42.30578 3.88192 31331 ft 354 kts 223°
2026-05-05 11:29 42.28697 3.85989 30725 ft 352 kts 223°
2026-05-05 11:30 42.26849 3.83826 30146 ft 351 kts 224°
2026-05-05 11:30 42.25008 3.81673 29481 ft 349 kts 224°
2026-05-05 11:30 42.23178 3.79534 28811 ft 348 kts 224°
2026-05-05 11:30 42.21354 3.77401 28246 ft 344 kts 224°
2026-05-05 11:31 42.19560 3.75305 27768 ft 339 kts 223°
2026-05-05 11:31 42.17793 3.73242 27293 ft 334 kts 223°
2026-05-05 11:31 42.16043 3.71202 26817 ft 330 kts 223°
2026-05-05 11:31 42.14319 3.69193 26368 ft 326 kts 223°
2026-05-05 11:32 42.12608 3.67201 25918 ft 323 kts 223°
2026-05-05 11:32 42.10917 3.65235 25471 ft 320 kts 223°
2026-05-05 11:32 42.09241 3.63285 25037 ft 317 kts 223°
2026-05-05 11:32 42.07668 3.61224 24621 ft 313 kts 227°
2026-05-05 11:33 42.06171 3.59118 24216 ft 311 kts 227°
2026-05-05 11:33 42.04672 3.57020 23814 ft 310 kts 227°
2026-05-05 11:33 42.03181 3.54939 23405 ft 309 kts 227°
2026-05-05 11:33 42.01693 3.52864 22935 ft 307 kts 227°
2026-05-05 11:34 42.00213 3.50801 22474 ft 306 kts 227°
2026-05-05 11:34 41.98741 3.48745 22017 ft 305 kts 227°
2026-05-05 11:34 41.97273 3.46699 21574 ft 304 kts 227°
2026-05-05 11:34 41.95810 3.44664 21132 ft 302 kts 227°
2026-05-05 11:35 41.94348 3.42635 20698 ft 301 kts 227°
2026-05-05 11:35 41.92874 3.40588 20261 ft 300 kts 227°
2026-05-05 11:35 41.91425 3.38577 19839 ft 299 kts 227°
2026-05-05 11:35 41.89982 3.36569 19418 ft 298 kts 227°
2026-05-05 11:36 41.88518 3.34537 19039 ft 313 kts 226°
2026-05-05 11:36 41.86982 3.32407 18658 ft 320 kts 226°
2026-05-05 11:36 41.85428 3.30259 18281 ft 321 kts 226°
2026-05-05 11:36 41.83874 3.28110 17854 ft 321 kts 226°
2026-05-05 11:37 41.82320 3.25960 17423 ft 320 kts 226°
2026-05-05 11:37 41.80775 3.23823 17000 ft 319 kts 226°
2026-05-05 11:37 41.79234 3.21694 16584 ft 318 kts 226°
2026-05-05 11:37 41.77696 3.19571 16183 ft 317 kts 226°
2026-05-05 11:38 41.76160 3.17454 15770 ft 316 kts 226°
2026-05-05 11:38 41.74607 3.15315 15363 ft 315 kts 226°
2026-05-05 11:38 41.73078 3.13211 14969 ft 315 kts 225°
2026-05-05 11:38 41.71555 3.11113 14581 ft 314 kts 225°
2026-05-05 11:39 41.70034 3.09021 14184 ft 313 kts 225°
2026-05-05 11:39 41.68518 3.06942 13820 ft 312 kts 225°
2026-05-05 11:39 41.67002 3.04864 13400 ft 311 kts 225°
2026-05-05 11:39 41.65492 3.02795 12978 ft 310 kts 225°
2026-05-05 11:40 41.64108 3.00600 12549 ft 308 kts 238°
2026-05-05 11:40 41.63075 2.98113 12163 ft 304 kts 240°
2026-05-05 11:40 41.62067 2.95651 11805 ft 299 kts 240°
2026-05-05 11:40 41.61073 2.93236 11453 ft 295 kts 240°
2026-05-05 11:41 41.60088 2.90858 11105 ft 290 kts 240°
2026-05-05 11:41 41.59113 2.88517 10757 ft 287 kts 240°
2026-05-05 11:41 41.58149 2.86210 10421 ft 283 kts 240°
2026-05-05 11:41 41.57191 2.83926 10076 ft 280 kts 240°
2026-05-05 11:42 41.56246 2.81676 9732 ft 276 kts 240°
2026-05-05 11:42 41.55309 2.79447 9362 ft 273 kts 240°
2026-05-05 11:42 41.54384 2.77245 9004 ft 271 kts 240°
2026-05-05 11:42 41.53468 2.75068 8634 ft 268 kts 240°
2026-05-05 11:43 41.52550 2.72883 8269 ft 266 kts 240°
2026-05-05 11:43 41.51646 2.70736 7911 ft 264 kts 240°
2026-05-05 11:43 41.50746 2.68606 7560 ft 263 kts 239°
2026-05-05 11:43 41.49850 2.66482 7214 ft 263 kts 239°
2026-05-05 11:44 41.48953 2.64351 6870 ft 262 kts 240°
2026-05-05 11:44 41.48112 2.62197 6550 ft 262 kts 245°
2026-05-05 11:44 41.47383 2.59974 6235 ft 262 kts 245°
2026-05-05 11:44 41.46655 2.57751 5898 ft 259 kts 245°
2026-05-05 11:45 41.45933 2.55610 5565 ft 245 kts 244°
2026-05-05 11:45 41.45469 2.54274 5347 ft 236 kts 244°
2026-05-05 11:45 41.44809 2.52338 5022 ft 223 kts 245°
2026-05-05 11:45 41.44190 2.50504 4703 ft 213 kts 244°
2026-05-05 11:46 41.43595 2.48739 4367 ft 205 kts 245°
2026-05-05 11:46 41.43020 2.47032 4053 ft 201 kts 243°
2026-05-05 11:46 41.42434 2.45299 3767 ft 209 kts 245°
2026-05-05 11:46 41.41828 2.43502 3610 ft 205 kts 245°
2026-05-05 11:47 41.41260 2.41821 3466 ft 200 kts 245°
2026-05-05 11:47 41.40692 2.40141 3201 ft 197 kts 246°
2026-05-05 11:47 41.40132 2.38486 2857 ft 190 kts 245°
2026-05-05 11:47 41.39598 2.36909 2525 ft 183 kts 245°
2026-05-05 11:48 41.38564 2.33858 2306 ft 180 kts 245°
2026-05-05 11:48 41.38051 2.32344 2308 ft 179 kts 245°
2026-05-05 11:48 41.37537 2.30827 2309 ft 180 kts 245°
2026-05-05 11:49 41.37023 2.29315 2312 ft 180 kts 245°
2026-05-05 11:49 41.36530 2.27862 2311 ft 167 kts 245°
2026-05-05 11:49 41.36061 2.26480 2306 ft 161 kts 245°
2026-05-05 11:49 41.35599 2.25121 2294 ft 160 kts 244°
2026-05-05 11:50 41.35141 2.23776 2187 ft 159 kts 245°
2026-05-05 11:50 41.34686 2.22438 1993 ft 158 kts 244°
2026-05-05 11:50 41.34233 2.21107 1789 ft 158 kts 244°
2026-05-05 11:50 41.33778 2.19770 1579 ft 159 kts 243°
2026-05-05 11:51 41.33321 2.18431 1370 ft 160 kts 244°
2026-05-05 11:51 41.32863 2.17086 1134 ft 159 kts 244°
2026-05-05 11:51 41.32404 2.15742 920 ft 156 kts 244°
2026-05-05 11:51 41.31973 2.14478 711 ft 146 kts 244°
2026-05-05 11:52 41.31558 2.13266 516 ft 142 kts 244°
2026-05-05 11:52 41.31158 2.12058 313 ft 141 kts 243°
2026-05-05 11:52 41.30742 2.10875 143 ft 141 kts 244°
2026-05-05 11:52 41.30341 2.09703 26 ft 132 kts 244°
2026-05-05 11:53 41.30024 2.08788 21 ft 71 kts 245°
2026-05-05 11:53 41.29925 2.08283 21 ft 46 kts 272°
2026-05-05 11:53 41.29949 2.08061 18 ft 8 kts 297°
2026-05-05 11:53 41.29983 2.08025 18 ft 6 kts 329°
2026-05-05 11:54 41.29990 2.08018 18 ft 5 kts 326°
2026-05-05 11:54 41.29978 2.07904 18 ft 16 kts 248°
2026-05-05 11:54 41.29934 2.07780 16 ft 14 kts 242°
2026-05-05 11:54 41.29891 2.07664 16 ft 13 kts 246°
2026-05-05 11:55 41.29890 2.07556 16 ft 12 kts 307°
2026-05-05 11:55 41.29896 2.07458 15 ft 10 kts 248°
2026-05-05 11:55 41.29868 2.07379 15 ft 9 kts 245°
2026-05-05 11:55 41.29840 2.07296 15 ft 11 kts 246°
2026-05-05 11:56 41.29822 2.07197 16 ft 10 kts 295°
2026-05-05 11:56 41.29862 2.07154 18 ft 6 kts 333°
2026-05-05 11:56 41.29919 2.07112 20 ft 9 kts 320°
2026-05-05 11:56 41.29925 2.07046 20 ft 7 kts 248°
2026-05-05 11:57 41.29910 2.07013 20 ft 2 kts 206°
2026-05-05 11:57 41.29880 2.07022 18 ft 8 kts 158°
2026-05-05 11:57 41.29859 2.07034 18 ft 0 kts 156°
2026-05-05 11:57 41.29846 2.07043 19 ft 0 kts 155°
2026-05-05 11:58 41.29840 2.07046 18 ft 1 kts 156°